Location: Castelnau
(43.6639°N, 0.8431°W)
Time: 16:30:57
(UTC+00:00)

COSMO-SKYMED 1 - Pass Details

Date: 13 January 2026
Orbit: 578 x 579 km, 97.9° (Epoch: 11 February)

Event Time Altitude Azimuth Distance (km) Brightness Sun altitude
Rises 05:32:55 0° 166° (SSE) 2,784 6.2 -21.5°
Reaches altitude 10° 05:35:03 10° 167° (SSE) 1,890 5.3 -21.1°
Maximum altitude 05:39:09 87° 252° (WSW) 587 2.3 -20.4°
Enters shadow 05:41:24 27° 345° (NNW) 1,145 3.7 -20.0°
